Location: Presov
(49.0000°N, 21.2500°E)
Time: 06:24:59
(UTC+02:00)

Transit 2A Rocket - Pass Details

Date: 21 April 2021
Orbit: 594 x 909 km, 66.7° (Epoch: 07 May)

Event Time Altitude Azimuth Distance (km) Brightness Sun altitude
Rises 17:12:27 0° 252° (WSW) 2,899 9.4 22.4°
Reaches altitude 10° 17:15:06 10° 266° (W) 1,965 9.3 21.9°
Maximum altitude 17:18:41 24° 321° (NW) 1,255 6.8 21.4°
Drops below altitude 10° 17:22:14 10° 17° (NNE) 1,938 7.0 20.8°
Sets 17:24:50 0° 31° (NNE) 2,849 7.6 20.3°
